SWA264 KLAS-KSFO

Flight info

Callsign SWA264
Flight time N/A
Altitude 32000
Route JOHKR5 KENNO RUSME DYAMD5
Aircraft B38M/M-SDE1FGHILORVWXY/HB1

Departure

Time 2026-05-04 05:31
Airport Harry Reid International Airport (KLAS)

Arrival

Time N/A
Airport San Francisco International Airport (KSFO)
Time Latitude Longitude Altitude Speed Heading
2026-05-04 04:58 36.08286 -115.15361 2068 ft 0 kts 108°
2026-05-04 05:13 36.08288 -115.15368 2089 ft 3 kts 108°
2026-05-04 05:13 36.08294 -115.15390 2098 ft 3 kts 108°
2026-05-04 05:14 36.08300 -115.15412 2098 ft 3 kts 132°
2026-05-04 05:14 36.08316 -115.15422 2098 ft 3 kts 176°
2026-05-04 05:14 36.08334 -115.15423 2098 ft 3 kts 176°
2026-05-04 05:14 36.08353 -115.15425 2098 ft 3 kts 177°
2026-05-04 05:15 36.08363 -115.15424 2098 ft 1 kts 200°
2026-05-04 05:22 36.08362 -115.15425 2098 ft 0 kts 207°
2026-05-04 05:22 36.08361 -115.15430 2098 ft 1 kts 249°
2026-05-04 05:22 36.08360 -115.15465 2099 ft 7 kts 266°
2026-05-04 05:23 36.08342 -115.15532 2100 ft 7 kts 244°
2026-05-04 05:23 36.08341 -115.15535 2100 ft 0 kts 243°
2026-05-04 05:24 36.08341 -115.15536 2100 ft 1 kts 243°
2026-05-04 05:24 36.08308 -115.15568 2101 ft 11 kts 194°
2026-05-04 05:24 36.08206 -115.15542 2100 ft 17 kts 193°
2026-05-04 05:25 36.08162 -115.15650 2102 ft 16 kts 270°
2026-05-04 05:25 36.08162 -115.15798 2107 ft 18 kts 270°
2026-05-04 05:25 36.08162 -115.15957 2115 ft 19 kts 270°
2026-05-04 05:25 36.08139 -115.16106 2124 ft 17 kts 229°
2026-05-04 05:26 36.08036 -115.16177 2128 ft 18 kts 205°
2026-05-04 05:26 36.07917 -115.16245 2132 ft 19 kts 204°
2026-05-04 05:26 36.07800 -115.16312 2139 ft 11 kts 205°
2026-05-04 05:26 36.07787 -115.16319 2139 ft 0 kts 205°
2026-05-04 05:28 36.07389 -115.16602 2153 ft 0 kts 276°
2026-05-04 05:29 36.07391 -115.16611 2153 ft 6 kts 284°
2026-05-04 05:29 36.07437 -115.16704 2158 ft 15 kts 332°
2026-05-04 05:29 36.07546 -115.16683 2157 ft 19 kts 24°
2026-05-04 05:31 36.15753 -115.12570 3852 ft 368 kts 19°
2026-05-04 05:31 36.18250 -115.11372 3736 ft 403 kts 19°
2026-05-04 05:32 36.20939 -115.10102 4299 ft 355 kts 19°